Regional Weather Roundup
Issued by NWS

Home | Current Version | Previous Version | Graphics & Text | Print | Product List | Glossary On
Versions: 1 2 3 4 5 6 7 8 9 10 11 12 13 14 15 16 17 18 19 20 21 22 23 24 25 26 27 28 29 30 31 32 33 34 35 36 37 38 39 40 41 42 43 44 45 46 47 48 49 50
000
ASUS43 KBIS 250859
RWRND

NORTH DAKOTA REGIONAL WEATHER ROUNDUP
NATIONAL WEATHER SERVICE BISMARCK ND
400 AM CDT SAT OCT 25 2014

NOTE: "FAIR" INDICATES FEW OR NO CLOUDS BELOW 12,000 FEET WITH NO
SIGNIFICANT WEATHER AND/OR OBSTRUCTIONS TO VISIBILITY.


NDZ001>003-009>011-017-251000-
NORTHWEST NORTH DAKOTA

CITY           SKY/WX    TMP DP  RH WIND       PRES   REMARKS
WILLISTON      CLOUDY    43  30  60 SE5       30.09R
MINOT          MOCLDY    45  29  53 W12       30.05R
$$

NDZ018>021-031>035-040>046-251000-
SOUTHWEST NORTH DAKOTA

CITY           SKY/WX    TMP DP  RH WIND       PRES   REMARKS
BISMARCK       MOCLDY    46  32  58 NW5       30.10R
DICKINSON      CLOUDY    46  32  58 W6        30.09F
GARRISON         N/A     41  31  67 W8        30.07R
HETTINGER ARPT MOCLDY    42  31  64 CALM      30.14R
$$

NDZ004>008-012>016-024-026-027-054-251000-
NORTHEAST NORTH DAKOTA

CITY           SKY/WX    TMP DP  RH WIND       PRES   REMARKS
GRAND FORKS    PTCLDY    44  34  67 W8        29.98R
DEVILS LAKE    PTCLDY    45  30  57 W12       30.00R
$$

NDZ022-023-025-028>030-036>039-047>053-251000-
SOUTHEAST NORTH DAKOTA

CITY           SKY/WX    TMP DP  RH WIND       PRES   REMARKS
FARGO          PTCLDY    43  31  62 W9        30.01R
$$




USA.gov is the U.S. government's official web portal to all federal, state and local government web resources and services.